Stations météo

réclame
Mon MeteoGroup
Rostherne No 2, Grande-Bretagne (3351): Température de l'air & dewpoint: 11.10.2019 09:00:00 - 17.10.2019 09:00:00 (BST)Rostherne No 2, Grande-Bretagne (3351): Vitesse du vent & gusts: 11.10.2019 09:00:00 - 17.10.2019 09:00:00 (BST)Rostherne No 2, Grande-Bretagne (3351): Direction du vent: 11.10.2019 09:00:00 - 17.10.2019 09:00:00 (BST)Rostherne No 2, Grande-Bretagne (3351): reduced air pressure: 11.10.2019 09:00:00 - 17.10.2019 09:00:00 (BST)Rostherne No 2, Grande-Bretagne (3351): visibility: 11.10.2019 09:00:00 - 17.10.2019 09:00:00 (BST)Rostherne No 2, Grande-Bretagne (3351): Ensoleillement: 11.10.2019 09:00:00 - 17.10.2019 09:00:00 (BST)Rostherne No 2, Grande-Bretagne (3351): Quantités de précipitations: 11.10.2019 09:00:00 - 17.10.2019 09:00:00 (BST)
Date & Time tt [°C] td [°C] ff [km/h] ff [knt] fx [km/h] fx [knt] dd ppp [hPa] vv [km] sd [min] rr [mm]
17.10.2019 09:00:00 7,0 6,0 11 6 - - SSE 1004,0 25 42 0,0
17.10.2019 08:00:00 5,7 4,9 11 6 - - S 1004,1 27 0 0,0
17.10.2019 07:00:00 4,5 3,7 9 5 - - SSE 1003,9 21 0 0,0
17.10.2019 06:00:00 6,3 4,7 11 6 - - S 1004,0 30 0 0,0
17.10.2019 05:00:00 6,8 5,0 13 7 - - S 1004,1 24 0 0,0
17.10.2019 04:00:00 6,9 5,1 9 5 - - S 1004,5 30 0 0,0
17.10.2019 03:00:00 5,1 4,3 8 4 - - SSE 1004,6 24 0 0,0
17.10.2019 02:00:00 7,3 5,5 8 4 - - S 1004,7 29 0 0,0
17.10.2019 01:00:00 7,3 5,6 9 5 - - SSW 1004,5 23 - 0,0
17.10.2019 00:00:00 7,5 5,8 9 5 - - SSW 1004,2 24 0 0,0
16.10.2019 23:00:00 7,2 5,8 5 3 - - S 1004,3 29 0 0,0
16.10.2019 22:00:00 6,6 6,2 4 2 - - S 1004,2 20 0 0,0
16.10.2019 21:00:00 5,5 4,4 5 3 - - SSE 1003,8 21 0 0,0
16.10.2019 20:00:00 8,6 7,3 8 4 - - WSW 1003,5 28 0 0,0
16.10.2019 19:00:00 7,8 5,5 5 3 - - WSW 1003,0 25 0 0,0
16.10.2019 18:00:00 10,8 6,2 9 5 - - WNW 1002,5 28 42 0,0
16.10.2019 17:00:00 13,4 7,5 11 6 - - WNW 1002,0 30 42 0,0
16.10.2019 16:00:00 12,6 7,4 18 10 - - WNW 1001,6 35 36 0,0
16.10.2019 15:00:00 12,6 6,6 21 11 - - W 1001,5 - 18 0,0
16.10.2019 14:00:00 13,2 7,3 21 11 - - W 1001,4 - 36 0,0
16.10.2019 13:00:00 12,5 8,3 22 12 - - W 1000,8 - 18 0,0
16.10.2019 12:00:00 12,3 10,0 15 8 - - W 1000,2 - 0 0,0
16.10.2019 11:00:00 11,7 10,4 16 9 - - W 999,6 - 0 0,0
16.10.2019 10:00:00 11,0 10,2 16 9 - - W 998,9 - 0 0,2
16.10.2019 09:00:00 12,6 11,9 16 9 - - S 997,7 40 0 0,0
16.10.2019 08:00:00 12,2 11,5 18 10 - - S 997,0 50 0 0,8
16.10.2019 07:00:00 12,1 11,3 16 9 - - S 996,9 28 0 0,4
16.10.2019 06:00:00 11,6 10,9 18 10 - - SE 997,2 15 0 0,4
16.10.2019 05:00:00 11,5 10,4 18 10 - - SSE 998,0 21 0 0,2
16.10.2019 04:00:00 11,2 9,5 16 9 - - SSE 999,0 35 0 0,0
16.10.2019 03:00:00 10,7 8,9 13 7 - - SSE 999,9 40 0 0,0
16.10.2019 02:00:00 10,4 8,6 15 8 - - SSE 1000,5 40 0 0,0
16.10.2019 01:00:00 10,0 8,6 13 7 - - SSE 1001,3 45 - 0,0
16.10.2019 00:00:00 9,5 8,5 9 5 - - SSE 1001,9 14 0 0,0
15.10.2019 23:00:00 11,0 9,7 15 8 - - S 1002,1 24 0 0,0
15.10.2019 22:00:00 10,8 9,7 13 7 - - SSE 1002,1 11 0 0,0
15.10.2019 21:00:00 11,8 10,6 11 6 - - S 1002,2 19 0 0,0
15.10.2019 20:00:00 11,1 10,0 9 5 - - SSE 1002,5 24 0 0,0
15.10.2019 19:00:00 10,0 8,9 9 5 - - SSE 1002,5 27 0 0,0
15.10.2019 18:00:00 10,7 8,8 9 5 - - SSE 1002,3 35 24 0,0
15.10.2019 17:00:00 12,1 9,7 9 5 - - S 1002,2 40 0 0,0
15.10.2019 16:00:00 12,1 9,2 8 4 - - S 1002,5 35 0 0,0
15.10.2019 15:00:00 12,1 9,5 8 4 - - S 1002,5 40 0 0,0
15.10.2019 14:00:00 11,3 9,2 5 3 - - S 1002,8 23 0 0,0
15.10.2019 13:00:00 10,9 9,8 8 4 - - S 1003,0 14 0 0,0
15.10.2019 12:00:00 10,8 10,2 8 4 - - S 1003,2 5 0 0,0
15.10.2019 11:00:00 10,3 10,1 5 3 - - SSW 1003,1 8 0 0,0
15.10.2019 10:00:00 9,7 9,7 4 2 - - SSW 1003,1 6 0 0,0
15.10.2019 09:00:00 9,6 9,5 4 2 - - W 1003,0 1,8 0 0,4
15.10.2019 08:00:00 9,3 9,2 2 1 - - NE 1002,6 2,8 0 0,0
15.10.2019 07:00:00 9,2 9,1 5 3 - - W 1001,8 5 0 0,0
15.10.2019 06:00:00 9,1 9,0 8 4 - - NNW 1001,8 5 0 0,0
15.10.2019 05:00:00 9,4 9,2 8 4 - - NW 1002,0 9 0 0,0
15.10.2019 04:00:00 9,4 9,2 9 5 - - WNW 1001,7 22 0 0,0
15.10.2019 03:00:00 9,5 9,3 8 4 - - NW 1001,6 45 0 0,2
15.10.2019 02:00:00 9,6 9,3 9 5 - - NNW 1001,9 29 0 0,2
15.10.2019 01:00:00 9,5 9,3 9 5 - - NW 1001,8 16 - 0,8
15.10.2019 00:00:00 9,5 9,1 8 4 - - NNW 1002,0 7 0 2,0
14.10.2019 23:00:00 9,8 9,0 8 4 - - N 1002,7 4,5 0 1,2
14.10.2019 22:00:00 10,1 8,8 11 6 - - NNE 1002,9 19 0 0,0
14.10.2019 21:00:00 10,4 8,7 11 6 - - ENE 1003,6 30 0 0,2
14.10.2019 20:00:00 10,6 9,3 8 4 - - ENE 1004,2 50 0 0,2
14.10.2019 19:00:00 10,7 9,7 8 4 - - ENE 1004,5 30 0 0,0
14.10.2019 18:00:00 10,9 10,0 8 4 - - E 1004,8 20 0 0,4
14.10.2019 17:00:00 11,4 9,7 9 5 - - ESE 1005,7 17 0 0,6
14.10.2019 16:00:00 12,7 9,7 9 5 - - SE 1005,9 50 0 0,0
14.10.2019 15:00:00 13,3 9,9 16 9 - - SE 1006,1 50 0 0,0
14.10.2019 14:00:00 14,0 10,8 16 9 - - SE 1006,3 40 0 0,0
14.10.2019 13:00:00 13,2 10,5 13 7 - - SE 1007,2 30 6 0,0
14.10.2019 12:00:00 13,3 10,3 13 7 - - SE 1007,8 25 24 0,0
14.10.2019 11:00:00 12,5 10,8 4 2 - - SE 1008,3 40 24 0,0
14.10.2019 10:00:00 9,1 9,1 4 2 - - SE 1008,7 16 6 0,0
14.10.2019 09:00:00 7,0 6,8 2 1 - - ESE 1009,0 14 0 0,0
14.10.2019 08:00:00 7,1 6,9 2 1 - - E 1008,9 19 0 0,0
14.10.2019 07:00:00 7,1 6,8 5 3 - - SE 1008,8 22 0 0,0
14.10.2019 06:00:00 7,1 6,7 8 4 - - SE 1009,0 26 0 0,0
14.10.2019 05:00:00 7,4 6,9 8 4 - - SSE 1009,4 28 0 0,0
14.10.2019 04:00:00 8,6 7,7 11 6 - - S 1009,3 45 0 0,0
14.10.2019 03:00:00 7,6 7,0 5 3 - - SE 1009,0 45 0 0,0
14.10.2019 02:00:00 8,5 7,5 8 4 - - S 1008,8 35 0 0,0
14.10.2019 01:00:00 8,5 7,5 9 5 - - S 1008,3 40 - 0,0
14.10.2019 00:00:00 8,5 7,6 8 4 - - SSW 1007,9 40 0 0,0
13.10.2019 23:00:00 8,5 7,6 5 3 - - S 1007,6 50 0 0,0
13.10.2019 22:00:00 7,6 6,8 5 3 - - SSE 1007,4 45 0 0,0
13.10.2019 21:00:00 9,2 7,7 8 4 - - SW 1006,4 50 0 0,0
13.10.2019 20:00:00 9,7 7,9 9 5 - - WSW 1005,2 50 0 0,0
13.10.2019 19:00:00 10,7 8,0 15 8 52 28 W 1003,9 50 0 0,0
13.10.2019 18:00:00 11,9 8,6 34 18 55 30 W 1002,1 50 0 0,2
13.10.2019 17:00:00 12,8 11,8 9 5 - - SSW 999,6 45 0 0,0
13.10.2019 16:00:00 11,7 11,1 11 6 - - SSE 999,2 5 0 0,6
13.10.2019 15:00:00 12,1 10,8 9 5 - - S 999,1 45 0 0,0
13.10.2019 14:00:00 12,2 10,5 8 4 - - S 998,9 50 0 0,0
13.10.2019 13:00:00 12,2 10,5 4 2 - - S 999,3 45 0 0,0
13.10.2019 12:00:00 11,9 10,9 2 1 - - ENE 999,1 50 0 0,0
13.10.2019 11:00:00 11,5 11,0 4 2 - - ENE 999,5 45 0 0,0
13.10.2019 10:00:00 11,0 10,7 5 3 - - E 1000,2 9 0 0,6
13.10.2019 09:00:00 10,6 10,2 5 3 - - ESE 1001,0 9 0 0,4
13.10.2019 08:00:00 10,6 10,0 9 5 - - SE 1001,5 13 0 0,0
13.10.2019 07:00:00 10,7 10,3 8 4 - - SSE 1002,1 7 0 0,0
13.10.2019 06:00:00 10,8 10,5 8 4 - - SE 1002,8 7 0 0,0
13.10.2019 05:00:00 10,8 10,6 5 3 - - SE 1003,2 8 0 0,0
13.10.2019 04:00:00 10,2 10,0 8 4 - - SE 1003,5 5 0 0,0
13.10.2019 03:00:00 10,2 9,8 8 4 - - SE 1004,3 5 0 0,0
13.10.2019 02:00:00 10,9 10,4 4 2 - - E 1005,0 10 0 0,0
13.10.2019 01:00:00 11,2 10,6 8 4 - - SSE 1005,3 15 - 0,0
13.10.2019 00:00:00 11,5 10,6 11 6 - - S 1005,7 27 0 0,2
12.10.2019 23:00:00 11,8 10,8 13 7 - - S 1006,0 25 0 0,0
12.10.2019 22:00:00 11,2 10,7 5 3 - - SSE 1006,1 18 0 0,0
12.10.2019 21:00:00 10,6 9,8 8 4 - - SSE 1006,0 25 0 0,0
12.10.2019 20:00:00 10,2 9,9 5 3 - - SSE 1005,9 10 0 0,2
12.10.2019 19:00:00 10,3 9,7 5 3 - - SE 1005,9 35 0 0,0
12.10.2019 18:00:00 10,8 9,7 4 2 - - SSE 1005,9 45 0 0,0
12.10.2019 17:00:00 11,1 9,6 8 4 - - S 1005,9 45 0 0,2
12.10.2019 16:00:00 11,3 8,8 13 7 - - SSW 1006,2 18 0 0,4
12.10.2019 15:00:00 14,8 9,1 13 7 - - WSW 1005,9 29 30 0,0
12.10.2019 14:00:00 14,6 9,5 9 5 - - SSW 1005,9 30 60 0,0
12.10.2019 13:00:00 13,7 10,2 13 7 - - SSW 1006,5 28 30 0,0
12.10.2019 12:00:00 12,8 9,5 9 5 - - SSW 1006,4 35 54 0,0
12.10.2019 11:00:00 11,9 9,8 9 5 - - SSW 1006,2 40 36 0,0
12.10.2019 10:00:00 10,4 9,2 9 5 - - SW 1005,7 30 18 0,0
12.10.2019 09:00:00 9,3 8,7 9 5 - - SW 1005,3 29 0 0,0
12.10.2019 08:00:00 8,7 8,2 8 4 - - SW 1004,7 21 0 0,0
12.10.2019 07:00:00 8,5 7,8 9 5 - - SSW 1004,3 21 0 0,0
12.10.2019 06:00:00 8,5 7,8 8 4 - - SSW 1004,1 19 0 0,0
12.10.2019 05:00:00 8,6 7,7 5 3 - - SSW 1003,8 30 0 0,0
12.10.2019 04:00:00 9,2 7,9 9 5 - - SSW 1003,8 30 0 0,0
12.10.2019 03:00:00 9,7 8,2 8 4 - - S 1003,7 30 0 0,0
12.10.2019 02:00:00 10,0 8,3 8 4 - - SW 1003,6 35 0 0,0
12.10.2019 01:00:00 10,5 8,7 8 4 - - SW 1003,6 29 - 0,0
12.10.2019 00:00:00 11,1 9,4 8 4 - - SW 1003,1 24 0 0,0
11.10.2019 23:00:00 11,4 9,3 11 6 - - SW 1002,7 26 0 0,0
11.10.2019 22:00:00 11,9 8,9 15 8 - - WSW 1002,3 22 0 0,0
11.10.2019 21:00:00 12,1 9,2 11 6 - - SW 1002,0 29 0 0,0
11.10.2019 20:00:00 12,2 8,7 8 4 - - SSW 1001,9 26 0 0,0
11.10.2019 19:00:00 12,4 8,6 8 4 - - SSW 1001,7 30 0 0,0
11.10.2019 18:00:00 12,8 9,3 5 3 - - SSW 1001,2 21 0 0,0
11.10.2019 17:00:00 13,4 9,9 9 5 - - W 1001,3 27 0 0,0
11.10.2019 16:00:00 13,9 10,1 11 6 - - WSW 1000,8 26 0 0,0
11.10.2019 15:00:00 14,1 9,7 13 7 - - W 1000,2 30 36 0,0
11.10.2019 14:00:00 12,7 10,9 8 4 - - SW 1000,5 30 0 0,0
11.10.2019 13:00:00 12,1 10,9 9 5 - - SW 1000,7 6 0 0,0
11.10.2019 12:00:00 12,1 11,3 13 7 - - W 1000,6 35 0 0,2
11.10.2019 11:00:00 13,1 12,9 11 6 - - W 999,6 3,8 0 2,6
11.10.2019 10:00:00 12,7 12,4 9 5 - - W 999,5 3,0 0 5,0
11.10.2019 09:00:00 12,9 12,3 11 6 - - SW 999,8 5 0 1,2

tt = Température de l'air
td = dewpoint
ff = Vitesse du vent
fx = gusts
dd = Direction du vent
ppp = reduced air pressure
vv = visibility
sd = Ensoleillement
rr = Quantités de précipitations

stations d'obs. à proximité